Home   Weather   Hamilton   Past weeks
Flag for Canada

Past Weather in Hamilton, Ontario, Canada — Yesterday and Last 2 Weeks

Now
28 °F

Overcast.


Feels Like: 20 °F
Forecast: 27 / 33 °F
Wind: 8 mph from West

Location: Hamilton Airport

Current Time: Dec 10, 2018 at 8:10:43 am

Latest Report: Dec 10, 2018 at 7:00 am


Visibility: 15 mi

Pressure: 30.21 "Hg

Humidity: 86%

Dew Point: 25 °F

Location of HamiltonLocation

Past Weather in Hamilton — Graph

°F

Hamilton Temperature Yesterday

Maximum temperature yesterday: 30 °F (at 1:00 pm)
Minimum temperature yesterday: 12 °F (at 7:00 am)
Average temperature yesterday: 23 °F

High & Low Weather Summary for the Past Weeks

 TemperatureHumidityPressure
High57 °F (Dec 2, 2:00 pm)100% (Nov 26, 12:00 am)30.55 "Hg (Nov 26, 12:00 am)
Low12 °F (Dec 9, 7:00 am)51% (Dec 4, 4:00 pm)29.38 "Hg (Nov 26, 1:45 pm)
Average31 °F86%29.96 "Hg
* Reported Nov 25 6:00 am — Dec 10 6:00 am, Hamilton. Weather by CustomWeather, © 2018

Note: Actual official high and low records may vary slightly from our data, if they occured in-between our weather recording intervals... More about our weather records

Advertising

Hamilton Weather History for the Previous 24 Hours

Scroll right to see more
 ConditionsComfort  
Time TempWeatherWind HumidityBarometerVisibility
6:00 am
Mon, Dec 10
28 °FOvercast.8 mph86%30.20 "Hg15 mi
5:00 am28 °FOvercast.9 mph86%30.19 "Hg15 mi
4:00 am27 °FOvercast.9 mph86%30.19 "Hg15 mi
3:00 am27 °FOvercast.8 mph86%30.20 "Hg15 mi
2:00 am27 °FOvercast.8 mph86%30.20 "Hg15 mi
1:00 am27 °FOvercast.6 mph86%30.22 "Hg15 mi
12:00 am27 °FOvercast.3 mph86%30.24 "Hg15 mi
11:00 pm
Sun, Dec 9
27 °FOvercast.2 mph80%30.25 "Hg15 mi
10:00 pm27 °FOvercast.5 mph80%30.25 "Hg15 mi
9:00 pm27 °FOvercast.9 mph80%30.26 "Hg15 mi
8:00 pm27 °FOvercast.9 mph80%30.26 "Hg15 mi
7:00 pm25 °FPassing clouds.10 mph80%30.27 "Hg15 mi
6:00 pm25 °FPassing clouds.6 mph80%30.27 "Hg15 mi
5:00 pm27 °FPassing clouds.7 mph74%30.27 "Hg15 mi
4:00 pm30 °FPassing clouds.10 mph64%30.27 "Hg15 mi
3:00 pm30 °FPassing clouds.13 mph69%30.26 "Hg15 mi
1:00 pm30 °FScattered clouds.16 mph75%30.28 "Hg15 mi
12:00 pm28 °FBroken clouds.20 mph74%30.31 "Hg15 mi
11:00 am27 °FScattered clouds.13 mph80%30.35 "Hg15 mi
10:00 am25 °FScattered clouds.10 mph74%30.38 "Hg15 mi
9:00 am19 °FPartly sunny.8 mph86%30.39 "Hg15 mi
8:00 am18 °FPartly sunny.6 mph86%30.40 "Hg15 mi
Weather by CustomWeather, © 2018

See weather overview